Regional Weather Roundup
Issued by NWS

Home | Current Version | Previous Version | Text Only | Print | Product List | Glossary Off
Versions: 1 2 3 4 5 6 7 8 9 10 11 12 13 14 15 16 17 18 19 20 21 22 23 24 25 26 27 28 29 30 31 32 33 34 35 36 37 38 39 40 41 42 43 44 45 46 47 48 49 50

000
ASUS43 KBIS 201910
RWRND

NORTH DAKOTA REGIONAL WEATHER ROUNDUP
NATIONAL WEATHER SERVICE BISMARCK ND
100 PM CST SAT DEC 20 2014

NOTE: "FAIR" INDICATES FEW OR NO CLOUDS BELOW 12,000 FEET WITH NO
SIGNIFICANT WEATHER AND/OR OBSTRUCTIONS TO VISIBILITY.


NDZ001>003-009>011-017-202000-
NORTHWEST NORTH DAKOTA

CITY           SKY/WX    TMP DP  RH WIND       PRES   REMARKS
WILLISTON      SUNNY     32  29  88 S8        29.80F
MINOT          CLOUDY    23  20  88 SE3       29.82F FOG
MINOT AFB      CLOUDY    23  23 100 SE5       29.82F WCI  17
$$

NDZ018>021-031>035-040>046-202000-
SOUTHWEST NORTH DAKOTA

CITY           SKY/WX    TMP DP  RH WIND       PRES   REMARKS
BISMARCK       CLOUDY    24  23  96 SE5       29.87F WCI  18
DICKINSON      SUNNY     45  31  58 W14       29.81F
GARRISON         N/A     29  25  85 SW6       29.84S
HETTINGER ARPT MOSUNNY   44  30  57 W14       29.86F
$$

NDZ004>008-012>016-024-026-027-054-202000-
NORTHEAST NORTH DAKOTA

CITY           SKY/WX    TMP DP  RH WIND       PRES   REMARKS
GRAND FORKS    FOG       28  27  96 S14       29.97F VSB 1   WCI  17
GRND FRKS AFB  CLOUDY    27  27 100 SW6       29.97F FOG     WCI  20
DEVILS LAKE    CLOUDY    25  18  74 S6        29.88F VSB 1/2 WCI  18
$$

NDZ022-023-025-028>030-036>039-047>053-202000-
SOUTHEAST NORTH DAKOTA

CITY           SKY/WX    TMP DP  RH WIND       PRES   REMARKS
FARGO          CLOUDY    32  28  85 S13       29.99F FOG
JAMESTOWN      CLOUDY    28  25  88 S12       29.91F FOG     WCI  18
$$




USA.gov is the U.S. government's official web portal to all federal, state and local government web resources and services.